Location: Gälforsberget
(66.6500°N, 22.4167°E)
Time: 10:56:13
(UTC+00:00)

Cosmos 1356 Rocket - Pass Details

Date: 11 April 2026
Orbit: 514 x 556 km, 81.1° (Epoch: 10 May)

Event Time Altitude Azimuth Distance (km) Brightness Sun altitude
Exits shadow 22:18:17 25° 198° (SSW) 1,152 4.4 -14.7°
Maximum altitude 22:20:36 86° 109° (ESE) 565 3.3 -14.7°
Drops below altitude 10° 22:24:40 10° 23° (NNE) 1,839 7.1 -14.8°
Sets 22:26:50 0° 23° (NNE) 2,730 8.2 -14.8°
